Location: Beemte
(52.2555°N, 5.9895°E)
Time: 21:45:49
(UTC+00:00)

Cosmos 2297 Rocket - Pass Details

Date: 15 May 2026
Orbit: 838 x 842 km, 71.0° (Epoch: 10 June)

Event Time Altitude Azimuth Distance (km) Brightness Sun altitude
Exits shadow 23:28:03 33° 189° (S) 1,371 2.7 -18.7°
Maximum altitude 23:30:35 69° 116° (ESE) 900 2.2 -18.7°
Drops below altitude 10° 23:36:12 10° 34° (NE) 2,467 5.4 -18.7°
Sets 23:38:40 0° 33° (NNE) 3,406 6.4 -18.7°
